星链-4564 (STARLINK-4564 )

导读 | 星芒AI

STARLINK-4564 是 SpaceX Starlink 项目中的一颗低轨通信卫星,属于该星座的众多卫星之一,旨在为全球用户提供高速互联网服务。该卫星采用先进的推进和通信技术,具备自动避障能力,以确保在轨安全。它运行在约 550 公里的轨道高度,通过 KU/Ka 频段与地面终端通信,提高网络覆盖和连接质量。STARLINK-4564 的发射和运行有助于扩展 Starlink 在偏远和网络基础设施薄弱地区的服务能力。

基本信息
目录编号:
53560
目录名称:
STARLINK-4564
国际标识:
2022-101AK
轨道中心:
EARTH
卫星名称:
星链-4564
卫星全名:
星链-4564 (STARLINK-4564 )
卫星状态:
在轨 (已飞行1220 天)
发射日期:
2022-08-19 UTC
国别 :
美国 (US)
星等 :
--
轨道信息
数据来源 国际轨道数据 AOE轨道数据
星历时间 2025-12-20T19:22:08+0800
20小时前
查看轨道信息
2025-12-16T10:00:00+0800
5天前
查看轨道信息
半长轴 6918.068km 6917.783km
偏心率 0.0001566 0.0001315
轨道倾角 53.219° 53.217°
近地点辐角 83.530° 79.788°
升交点赤经 49.920° 69.628°
平近点角 276.587° 179.941°
近地点 538.847km 538.738km
远地点 541.015km 540.558km
周期 95.441分钟 95.436分钟
每日圈数 15.087787 15.088719
详细信息
固有亮度:
5
最大亮度:
2.5
卫星平台:
Starlink v1.5
覆盖范围:
全球
运营商:
太空探索技术公司
运营商所在国:
美国
制造商(研发单位):
太空探索技术公司
制造商所在国:
美国
使用方式:
暂无
卫星简介
星链(Starlink)计划是由太空探索技术公司(SpaceX)提出的一个巨型低轨卫星互联网星座项目,计划在2019年至2024年间在太空搭建由约1.2万颗卫星组成的“星链”网络,其中1584颗将部署在地球上空550千米处的近地轨道,并从2020年开始工作。该卫星仍在工作。
2D轨道图
3D轨道图
轨道高度分析图
轨道倾角分析图
轨道综合分析图
查看轨道综合分析图